sat.trackr.live / text

‹ back to catalog

FORMOSAT 7-1

NORAD 44349 · 2019-036L

PAYLOAD ACTIVE UNKNOWN

§ Identity

Operator
Country
ROC
Launch date
2019-06-25
Launch site
AFETR
Launch vehicle
Mass (kg)
RCS (m²)

External: N2YO · Heavens-Above · Gunter

§ Orbital elements

Epoch: 2026-09-19T23:38:09.877056Z

Period
96.20 min
Inclination
23.9971°
Eccentricity
0.0000653
Mean motion
14.96829946 rev/d
Perigee alt
576.2 km
Apogee alt
577.2 km
Semi-major
6,954.8 km
B*
1.3488e-4
RAAN
113.1221°
Arg perigee
187.6091°
Mean anomaly
172.4400°
Rev number
39,887

§ Raw data

FORMOSAT 7-11 44349U 19036L   26262.98483654  .00001887  00000+0  13488-3 0  99982 44349  23.9971 113.1221 0000653 187.6091 172.4400 14.96829946398875

JSON: /api/v1/satellites/44349 · /tle

For live sub-satellite position, see the globe view (requires WebGL).

§ Visibility from observer

Set your observer location to see the next 7 days of passes ≥ 10°. The values pass through the URL so the page stays shareable.

No JS? Fill the form by hand. The geolocation button needs JavaScript.

§ Radio — SatNOGS DB

ModeDescriptionDownlinkUplink
CW Downlink 400.900 MHz

1 transmitter · refreshed weekly from db.satnogs.org